Regional Weather Roundup
Issued by NWS Midland/Odessa, TX

Home | Current Version | Previous Version | Text Only | Print | Product List | Glossary On
Versions: 1 2 3 4 5 6 7 8 9 10 11 12 13 14 15 16 17 18 19 20 21 22 23 24 25 26 27 28 29 30 31 32 33 34 35 36 37 38 39 40 41 42 43 44 45 46 47 48 49 50
000
ASUS44 KMAF 010510
RWRMAF
MIDLAND AREA WEATHER ROUNDUP
NATIONAL WEATHER SERVICE MIDLAND TX
1200 AM CDT WED JUN 01 2016

...IN SOUTHWEST TEXAS AND SOUTHEAST NEW MEXICO...

CITY           SKY/WX    TMP DP  RH WIND       PRES   REMARKS
ALPINE         CLOUDY    57  55  91 S7        30.07F
ANDREWS        FAIR      61  61  99 E9        29.97F
ARTESIA        CLOUDY    61  54  77 N14       30.02F
BIG SPRING     CLOUDY    70  64  80 NW9       29.98R
CARLSBAD       MOCLDY    65  53  65 N18       29.98F
DRYDEN           N/A     68  61  78 S6        29.92R
FORT STOCKTON  NOT AVBL
GUAD PASS      NOT AVBL
HOBBS          CLOUDY    61  61 100 NE9       30.02R
MARFA          CLOUDY    59  55  87 NW10      30.06S
MIDLAND AIRPK  TSTM      64  60  87 SW12      30.02R
MIDLAND INTL   TSTM      63  57  81 W10G16    30.02R
ODESSA         TSTM      63  58  83 E15G26    29.99R
PECOS          CLOUDY    65  61  85 NE7       29.97R
PRESIDIO       LGT RAIN  66  63  89 SE3       29.96F
SEMINOLE       CLOUDY    62  60  91 CALM      29.99F
SNYDER           N/A     68  65  90 NW8       29.96R
WINK           CLOUDY    64  59  83 E13       29.94R
$$
...OTHER STATIONS IN TEXAS...

CITY           SKY/WX    TMP DP  RH WIND       PRES   REMARKS
ABILENE        LGT RAIN  67  66  97 E12       29.93R
AMARILLO       CLOUDY    63  57  81 E10       30.05R
AUSTIN         CLOUDY    68  67  96 N3        29.87S
BROWNSVILLE    CLOUDY    80  74  81 E6        29.87R
CORPUS CHRISTI LGT RAIN  76  71  85 SE21G35   29.77F
DALLAS FTW     CLOUDY    69  64  84 E3        29.86F
DEL RIO        CLOUDY    73  67  81 E6        29.88R
EL PASO        PTCLDY    73  41  31 N9        29.96R
HOUSTON INT    CLOUDY    77  70  79 SE9       29.85F
LUBBOCK        TSTM      66  60  81 NE8       29.98S
SAN ANGELO     CLOUDY    67  64  90 SW9       29.88R
SAN ANTONIO    CLOUDY    69  67  93 NE6       29.88S
WACO           CLOUDY    69  67  93 E8        29.87F
WICHITA FALLS  NOT AVBL
$$
...OTHER LOCATIONS IN NEW MEXICO...

CITY           SKY/WX    TMP DP  RH WIND       PRES   REMARKS
ALAMAGORDO     MOCLDY    68  41  37 N12       29.97R
ALBUQUERQUE    CLOUDY    65  39  38 NE8       30.05R
CANNON AFB     HVY RAIN  55  55 100 NW15      30.10S
CLOVIS         CLOUDY    55  52  88 NW15      30.08F THUNDER
HOLLOMAN AFB   MOCLDY    66  46  48 NW9       29.96R
ROSWELL        CLOUDY    61  50  67 NE7       30.02R
RUIDOSO          N/A     50  39  66 SW10      30.16S
SANTA FE       CLOUDY    54  40  59 S7        30.12R
TRUTH OR CONSE CLOUDY    68  43  40 W5        30.01F
TUCUMCARI      RAIN      58  53  84 SW16      30.07F
$$




USA.gov is the U.S. government's official web portal to all federal, state and local government web resources and services.